This demonstration page uses our WeatherBlox Daily Observations layout. Learn more.

Left ArrowRight Arrow

Hourly Observations for May 11, 2020

Temp ( °F °C ) Dew Point ( °F °C ) Humidity (%) Winds ( mph kmh ) Pressure ( in mb ) Visibility ( mi km ) Precip ( " mm )
12:52 am 00:52 Mostly Clear 38 3.3 27 -2.8 65 65 Calm 30.38 1029 10 16 0.00 0.00
1:52 am 01:52 Mostly Clear 37 2.8 28 -2.2 70 70 Calm 30.37 1028 10 16 0.00 0.00
2:52 am 02:52 Mostly Cloudy 38 3.3 28 -2.2 68 68 Calm 30.37 1028 10 16 0.00 0.00
3:52 am 03:52 Mostly Cloudy 37 2.8 27 -2.8 67 67 N 3 6 30.38 1029 10 16 0.00 0.00
4:52 am 04:52 Partly Cloudy 36 2.2 27 -2.8 70 70 NW 3 6 30.38 1029 10 16 0.00 0.00
5:52 am 05:52 Mostly Cloudy 35 1.7 27 -2.8 72 72 N 5 7 30.38 1029 10 16 0.00 0.00
6:52 am 06:52 Mostly Cloudy 36 2.2 29 -1.7 76 76 N 3 6 30.40 1030 10 16 0.00 0.00
7:52 am 07:52 Mostly Cloudy 39 3.9 29 -1.7 67 67 N 5 7 30.40 1029 10 16 0.00 0.00
8:52 am 08:52 Mostly Cloudy 44 6.7 30 -1.1 58 58 N 8 13 30.40 1029 10 16 0.00 0.00
9:52 am 09:52 Mostly Cloudy 48 8.9 29 -1.7 48 48 N 9 15 30.40 1030 10 16 0.00 0.00
10:52 am 10:52 Mostly Cloudy 50 10 26 -3.3 39 39 NNW 14 22 30.37 1029 10 16 0.00 0.00
11:52 am 11:52 Mostly Cloudy 52 11.1 25 -3.9 35 35 NNW 10 17 30.36 1028 10 16 0.00 0.00
12:52 pm 12:52 Mostly Cloudy 54 12.2 25 -3.9 33 33 VRB 6 9 30.35 1028 10 16 0.00 0.00
1:52 pm 13:52 Mostly Cloudy 54 12.2 25 -3.9 33 33 VRB 6 9 30.32 1027 10 16 0.00 0.00
2:52 pm 14:52 Mostly Cloudy 54 12.2 26 -3.3 34 34 VRB 3 6 30.31 1026 10 16 0.00 0.00
3:52 pm 15:52 Cloudy 54 12.2 25 -3.9 33 33 Calm 30.29 1026 10 16 0.00 0.00
4:52 pm 16:52 Mostly Cloudy 55 12.8 27 -2.8 34 34 NNW 10 17 30.25 1025 10 16 0.00 0.00
5:52 pm 17:52 Mostly Cloudy 54 12.2 26 -3.3 34 34 WNW 7 11 30.25 1024 10 16 0.00 0.00
6:52 pm 18:52 Mostly Cloudy 54 12.2 26 -3.3 34 34 NW 3 6 30.23 1024 10 16 0.00 0.00
7:52 pm 19:52 Cloudy 53 11.7 26 -3.3 35 35 W 8 13 30.21 1023 10 16 0.00 0.00
8:52 pm 20:52 Cloudy 52 11.1 27 -2.8 38 38 W 9 15 30.21 1023 10 16 0.00 0.00
9:52 pm 21:52 Cloudy 51 10.6 27 -2.8 39 39 W 7 11 30.22 1024 10 16 0.00 0.00
10:52 pm 22:52 Cloudy 50 10 30 -1.1 46 46 W 8 13 30.25 1024 10 16 0.00 0.00
11:52 pm 23:52 Cloudy 49 9.4 30 -1.1 48 48 W 8 13 30.25 1024 10 16 0.00 0.00

Powered by AerisWeather